Skip Page Navigation
NASA JPL Caltech
NASA Logo - Jet Propulsion Laboratory + View the NASA Portal
+ Center for Near-Earth Object Studies
JPL Home Earth Solar System Stars & Galaxies Technology
JPL Solar System Dynamics
BODIES ORBITS EPHEMERIDES TOOLS PHYSICAL DATA DISCOVERY FAQ SITE MAP
JPL Small-Body Database Browser
Search: [ help ]  
308656 (2006 BJ101)
Classification: Main-belt Asteroid          SPK-ID: 2308656
Ephemeris | Orbit Diagram | Orbital Elements | Mission Design | Physical Parameters | Discovery Circumstances | Close-Approach Data ]

[ show orbit diagram ]
Orbital Elements at Epoch 2459000.5 (2020-May-31.0) TDB
Reference: JPL 13 (heliocentric ecliptic J2000)
 Element Value Uncertainty (1-sigma)   Units 
e .1479898721302364 6.8174e-08  
a 2.215367690618979 1.6945e-08 au
q 1.887515709362819 1.5909e-07 au
i 2.853441273433512 6.3432e-06 deg
node 324.3347946812581 0.00010055 deg
peri 8.027954089636971 0.00010226 deg
M 275.0448070296462 1.9494e-05 deg
tp 2459284.719966008405
(2021-Mar-11.21996601)
6.695e-05 TDB
period 1204.390034152842
3.30
1.3818e-05
3.783e-08
d
yr
n .2989064919100075 3.4294e-09 deg/d
Q 2.543219671875139 1.9453e-08 au
  Orbit Determination Parameters
   # obs. used (total)      151  
   data-arc span      6771 days (18.54 yr)  
   first obs. used      2001-10-14  
   last obs. used      2020-04-28  
   planetary ephem.      DE431  
   SB-pert. ephem.      SB431-N16  
   condition code      0  
   norm. resid. RMS      .63945  
   source      ORB  
   producer      Otto Matic  
   solution date      2020-May-21 20:13:52  

Additional Information
 Earth MOID = .877016 au 
 Jupiter MOID = 2.78901 au 
 T_jup = 3.638 
[ show covariance matrix ]

Ephemeris | Orbit Diagram | Orbital Elements | Mission Design | Physical Parameters | Discovery Circumstances | Close-Approach Data ]

Physical Parameter Table
Parameter Symbol Value Units Sigma Reference Notes
absolute magnitude H 18.0   n/a MPO413270  

308656 (2006 BJ101)          Discovered 2006-Jan-23 by Mt. Lemmon Survey at Mount Lemmon
Reference: 20111210/Numbers.arcLast Updated: 2011-12-12

[ show close-approach data ]
Alternate Designations
 2006 BJ101 = 2001 TV186 = 2004 PK10 
Ephemeris | Orbit Diagram | Orbital Elements | Mission Design | Physical Parameters | Discovery Circumstances | Close-Approach Data ]
ABOUT SSD CREDITS/AWARDS PRIVACY/COPYRIGHT GLOSSARY LINKS
FirstGov 2020-Sep-27 06:50 UT
(server date/time)  
NASA Home Page
Site Manager:   Ryan S. Park
Webmaster  Alan B. Chamberlin